TimeCST,TemperatureF,Dew PointF,Humidity,Sea Level PressureIn,VisibilityMPH,Wind Direction,Wind SpeedMPH,Gust SpeedMPH,PrecipitationIn,Events,Conditions,WindDirDegrees,DateUTC
12:52 AM,27.0,19.9,75,30.32,10.0,NE,8.1,-,N/A,,Overcast,40,2013-02-08 06:52:00
1:39 AM,26.6,19.4,74,30.28,10.0,Calm,Calm,-,N/A,,Overcast,0,2013-02-08 07:39:00
1:52 AM,26.1,19.9,78,30.34,10.0,ENE,3.5,-,N/A,,Overcast,60,2013-02-08 07:52:00
2:52 AM,25.0,19.9,81,30.33,10.0,East,6.9,-,N/A,,Overcast,80,2013-02-08 08:52:00
3:52 AM,25.0,19.9,81,30.33,10.0,ENE,5.8,-,N/A,,Overcast,60,2013-02-08 09:52:00
4:52 AM,25.0,21.0,85,30.34,10.0,East,4.6,-,N/A,,Overcast,90,2013-02-08 10:52:00
5:52 AM,24.1,19.9,84,30.34,10.0,East,4.6,-,N/A,,Overcast,90,2013-02-08 11:52:00
6:27 AM,24.8,19.4,80,30.30,10.0,ESE,3.5,-,N/A,,Overcast,120,2013-02-08 12:27:00
6:52 AM,24.1,19.9,84,30.36,10.0,SE,5.8,-,N/A,,Overcast,140,2013-02-08 12:52:00
7:52 AM,24.1,21.0,88,30.35,9.0,SSE,4.6,-,N/A,,Overcast,160,2013-02-08 13:52:00
8:52 AM,24.1,21.0,88,30.36,10.0,SSE,8.1,-,N/A,,Overcast,150,2013-02-08 14:52:00
9:52 AM,25.0,21.0,85,30.37,10.0,SE,9.2,-,N/A,,Overcast,140,2013-02-08 15:52:00
10:52 AM,26.1,21.0,81,30.37,10.0,SE,10.4,-,N/A,,Overcast,140,2013-02-08 16:52:00
11:16 AM,26.6,21.2,80,30.32,10.0,SSE,10.4,-,N/A,,Overcast,160,2013-02-08 17:16:00
11:52 AM,27.0,21.9,81,30.37,10.0,SSE,11.5,-,N/A,,Overcast,160,2013-02-08 17:52:00
12:52 PM,28.9,21.9,75,30.34,10.0,SSE,15.0,-,N/A,,Overcast,150,2013-02-08 18:52:00
1:52 PM,30.9,23.0,72,30.28,10.0,SE,15.0,23.0,N/A,,Overcast,140,2013-02-08 19:52:00
2:28 PM,30.2,23.0,75,30.22,10.0,SSE,15.0,23.0,N/A,,Partly Cloudy,160,2013-02-08 20:28:00
2:52 PM,33.1,24.1,70,30.25,10.0,SSE,12.7,-,N/A,,Scattered Clouds,160,2013-02-08 20:52:00
3:52 PM,33.1,24.1,70,30.23,10.0,SSE,15.0,21.9,N/A,,Clear,160,2013-02-08 21:52:00
4:52 PM,33.1,24.1,70,30.20,10.0,SSE,15.0,-,N/A,,Clear,150,2013-02-08 22:52:00
5:52 PM,30.9,23.0,72,30.20,10.0,SSE,13.8,-,N/A,,Clear,150,2013-02-08 23:52:00
6:52 PM,30.0,23.0,75,30.19,10.0,SSE,15.0,21.9,N/A,,Clear,150,2013-02-09 00:52:00
7:52 PM,28.0,23.0,81,30.19,10.0,SSE,15.0,24.2,N/A,,Clear,150,2013-02-09 01:52:00
8:30 PM,28.4,24.8,86,30.14,10.0,SSE,16.1,-,N/A,,Mostly Cloudy,150,2013-02-09 02:30:00
8:52 PM,27.0,24.1,89,30.18,10.0,SE,13.8,-,N/A,,Mostly Cloudy,140,2013-02-09 02:52:00
9:14 PM,26.6,24.8,93,30.13,10.0,SSE,10.4,-,N/A,,Scattered Clouds,150,2013-02-09 03:14:00
9:52 PM,27.0,24.1,89,30.19,10.0,SSE,10.4,-,N/A,,Clear,150,2013-02-09 03:52:00
10:52 PM,25.0,23.0,92,30.17,10.0,ESE,12.7,-,N/A,,Clear,120,2013-02-09 04:52:00
11:52 PM,23.0,21.0,92,30.16,9.0,SE,13.8,-,N/A,,Clear,130,2013-02-09 05:52:00